Back to catalog

STARLINK-31826

AliveCommunicationsVLEO
NORAD 59768·PAYLOAD·🇺🇸 United States

Launched May 14, 2024 from Vandenberg Space Force Base

Loading…

Next Passes (next 24 hours)

TLE

FreshSource: CelesTrak SupGP

Epoch: Sep 14, 2026, 22:18 UTC

1 59768C 24091R   26257.92965278  .00047873  00000+0  43512-3 0  2574
2 59768  53.1436 205.8180 0010531  61.9940 345.0501 15.67212675    13

Track STARLINK-31826 in real time with AllMySat

Download on the App Store